| time (UTC) | temp C | wind direction | speed KPH | gust KPH | rain 1hr cm | rain 24hr cm | rain mn cm | humidity % | barometer mb |
| 20260902014507 | 33 | 121 | 0.0 | 4.8 | 0.00 | 0.00 | 0.00 | 49 | 1011.5 |
| 20260902014007 | 33 | 135 | 4.8 | 4.8 | 0.00 | 0.00 | 0.00 | 48 | 1011.5 |
| 20260902013507 | 33 | 136 | 3.2 | 6.4 | 0.00 | 0.00 | 0.00 | 48 | 1011.5 |
| 20260902013007 | 33 | 140 | 4.8 | 6.4 | 0.00 | 0.00 | 0.00 | 48 | 1011.4 |
| 20260902012506 | 33 | 146 | 1.6 | 9.7 | 0.00 | 0.00 | 0.00 | 47 | 1011.4 |
| 20260902012006 | 34 | 113 | 4.8 | 16.1 | 0.00 | 0.00 | 0.00 | 47 | 1011.4 |
| 20260902011507 | 34 | 140 | 3.2 | 16.1 | 0.00 | 0.00 | 0.00 | 47 | 1011.4 |
| 20260902011007 | 34 | 141 | 6.4 | 11.3 | 0.00 | 0.00 | 0.00 | 46 | 1011.3 |
| 20260902010507 | 35 | 100 | 4.8 | 9.7 | 0.00 | 0.00 | 0.00 | 45 | 1011.2 |
| 20260902010006 | 35 | 153 | 4.8 | 9.7 | 0.00 | 0.00 | 0.00 | 45 | 1011.2 |
| 20260902005507 | 35 | 119 | 1.6 | 11.3 | 0.00 | 0.00 | 0.00 | 45 | 1011.1 |
| 20260902005006 | 35 | 131 | 3.2 | 14.5 | 0.00 | 0.00 | 0.00 | 44 | 1011.1 |
| 20260902004506 | 35 | 99 | 4.8 | 14.5 | 0.00 | 0.00 | 0.00 | 43 | 1011.1 |
| 20260902004006 | 35 | 183 | 6.4 | 11.3 | 0.00 | 0.00 | 0.00 | 43 | 1011.1 |
| 20260902003006 | 35 | 112 | 3.2 | 9.7 | 0.00 | 0.00 | 0.00 | 43 | 1011.1 |
| 20260902002506 | 35 | 108 | 9.7 | 9.7 | 0.00 | 0.00 | 0.00 | 43 | 1011.2 |
| 20260902002006 | 35 | 114 | 1.6 | 3.2 | 0.00 | 0.00 | 0.00 | 42 | 1011.2 |
| 20260902001506 | 35 | 119 | 1.6 | 11.3 | 0.00 | 0.00 | 0.00 | 42 | 1011.2 |
| 20260902001006 | 36 | 93 | 3.2 | 11.3 | 0.00 | 0.00 | 0.00 | 42 | 1011.3 |
| 20260902000506 | 36 | 103 | 4.8 | 9.7 | 0.00 | 0.00 | 0.00 | 42 | 1011.2 |
| 20260902000005 | 36 | 100 | 9.7 | 12.9 | 0.00 | 0.00 | 0.00 | 42 | 1011.3 |
| 20260901235506 | 36 | 91 | 4.8 | 12.9 | 0.00 | 0.00 | 0.00 | 42 | 1011.2 |
| 20260901234505 | 36 | 109 | 4.8 | 6.4 | 0.00 | 0.00 | 0.00 | 41 | 1011.2 |
| 20260901233505 | 36 | 83 | 8.0 | 17.7 | 0.00 | 0.00 | 0.00 | 40 | 1011.2 |
| 20260901233005 | 37 | 96 | 9.7 | 9.7 | 0.00 | 0.00 | 0.00 | 40 | 1011.3 |
| 20260901232535 | 37 | 98 | 3.2 | 8.0 | 0.00 | 0.00 | 0.00 | 40 | 1011.2 |
| 20260901232035 | 37 | 124 | 6.4 | 8.0 | 0.00 | 0.00 | 0.00 | 40 | 1011.1 |
| 20260901231535 | 37 | 49 | 1.6 | 11.3 | 0.00 | 0.00 | 0.00 | 39 | 1011.1 |
| 20260901231035 | 37 | 101 | 4.8 | 11.3 | 0.00 | 0.00 | 0.00 | 39 | 1011.1 |
| 20260901230535 | 37 | 105 | 1.6 | 8.0 | 0.00 | 0.00 | 0.00 | 39 | 1011.1 |
| 20260901225535 | 37 | 116 | 3.2 | 14.5 | 0.00 | 0.00 | 0.00 | 39 | 1011.1 |
| 20260901225034 | 37 | 119 | 1.6 | 11.3 | 0.00 | 0.00 | 0.00 | 40 | 1011.0 |
| 20260901224535 | 37 | 93 | 0.0 | 11.3 | 0.00 | 0.00 | 0.00 | 40 | 1011.0 |
| 20260901224034 | 37 | 100 | 1.6 | 6.4 | 0.00 | 0.00 | 0.00 | 40 | 1011.0 |
| 20260901223534 | 37 | 82 | 1.6 | 6.4 | 0.00 | 0.00 | 0.00 | 40 | 1011.1 |
| 20260901223034 | 37 | 136 | 0.0 | 4.8 | 0.00 | 0.00 | 0.00 | 40 | 1011.1 |
| 20260901222534 | 37 | 355 | 1.6 | 4.8 | 0.00 | 0.00 | 0.00 | 40 | 1011.1 |
| 20260901222034 | 37 | 86 | 0.0 | 11.3 | 0.00 | 0.00 | 0.00 | 40 | 1011.1 |
| 20260901221534 | 37 | 88 | 3.2 | 11.3 | 0.00 | 0.00 | 0.00 | 40 | 1011.2 |
| 20260901221034 | 37 | 131 | 4.8 | 11.3 | 0.00 | 0.00 | 0.00 | 39 | 1011.2 |
| 20260901220534 | 38 | 81 | 3.2 | 11.3 | 0.00 | 0.00 | 0.00 | 38 | 1011.1 |
| 20260901215534 | 38 | 129 | 6.4 | 11.3 | 0.00 | 0.00 | 0.00 | 38 | 1011.2 |
| 20260901215034 | 38 | 150 | 0.0 | 3.2 | 0.00 | 0.00 | 0.00 | 39 | 1011.1 |
| 20260901214534 | 38 | 208 | 1.6 | 9.7 | 0.00 | 0.00 | 0.00 | 39 | 1011.1 |
| 20260901214034 | 38 | 104 | 9.7 | 9.7 | 0.00 | 0.00 | 0.00 | 39 | 1011.1 |
| 20260901213533 | 37 | 111 | 3.2 | 4.8 | 0.00 | 0.00 | 0.00 | 40 | 1011.2 |
| 20260901213034 | 37 | 96 | 1.6 | 4.8 | 0.00 | 0.00 | 0.00 | 40 | 1011.2 |
| 20260901211533 | 37 | 121 | 8.0 | 14.5 | 0.00 | 0.00 | 0.00 | 39 | 1011.4 |
| 20260901211033 | 37 | 224 | 3.2 | 4.8 | 0.00 | 0.00 | 0.00 | 39 | 1011.4 |
| 20260901205533 | 38 | 116 | 6.4 | 9.7 | 0.00 | 0.00 | 0.00 | 37 | 1011.7 |
| 20260901205033 | 38 | 109 | 6.4 | 12.9 | 0.00 | 0.00 | 0.00 | 38 | 1011.8 |
| 20260901204533 | 38 | 138 | 3.2 | 12.9 | 0.00 | 0.00 | 0.00 | 39 | 1011.7 |
| 20260901204033 | 38 | 167 | 4.8 | 4.8 | 0.00 | 0.00 | 0.00 | 39 | 1011.9 |
| 20260901203503 | 38 | 76 | 3.2 | 6.4 | 0.00 | 0.00 | 0.00 | 40 | 1012.1 |
| 20260901202533 | 37 | 90 | 0.0 | 11.3 | 0.00 | 0.00 | 0.00 | 41 | 1012.1 |
| 20260901202033 | 37 | 124 | 1.6 | 11.3 | 0.00 | 0.00 | 0.00 | 41 | 1012.2 |
| 20260901201032 | 37 | 113 | 3.2 | 11.3 | 0.00 | 0.00 | 0.00 | 42 | 1012.3 |
| 20260901200533 | 37 | 162 | 8.0 | 11.3 | 0.00 | 0.00 | 0.00 | 43 | 1012.5 |
| 20260901200032 | 37 | 126 | 3.2 | 9.7 | 0.00 | 0.00 | 0.00 | 43 | 1012.5 |
| 20260901195532 | 37 | 110 | 9.7 | 9.7 | 0.00 | 0.00 | 0.00 | 43 | 1012.6 |
| 20260901195032 | 37 | 118 | 6.4 | 6.4 | 0.00 | 0.00 | 0.00 | 43 | 1012.6 |
| 20260901194532 | 36 | 132 | 1.6 | 4.8 | 0.00 | 0.00 | 0.00 | 44 | 1012.7 |
| 20260901192532 | 37 | 304 | 1.6 | 4.8 | 0.00 | 0.00 | 0.00 | 44 | 1013.0 |
| 20260901192032 | 36 | 343 | 1.6 | 3.2 | 0.00 | 0.00 | 0.00 | 46 | 1013.1 |
| 20260901191032 | 36 | 211 | 3.2 | 11.3 | 0.00 | 0.00 | 0.00 | 47 | 1013.1 |
| 20260901190031 | 36 | 138 | 1.6 | 11.3 | 0.00 | 0.00 | 0.00 | 48 | 1013.2 |
| 20260901185531 | 36 | 326 | 3.2 | 9.7 | 0.00 | 0.00 | 0.00 | 48 | 1013.3 |
| 20260901185031 | 36 | 118 | 9.7 | 9.7 | 0.00 | 0.00 | 0.00 | 49 | 1013.5 |
| 20260901184532 | 36 | 109 | 4.8 | 6.4 | 0.00 | 0.00 | 0.00 | 49 | 1013.6 |
| 20260901184032 | 35 | 355 | 1.6 | 6.4 | 0.00 | 0.00 | 0.00 | 50 | 1013.7 |
| 20260901183531 | 35 | 332 | 1.6 | 12.9 | 0.00 | 0.00 | 0.00 | 50 | 1013.9 |
| 20260901183032 | 35 | 150 | 4.8 | 12.9 | 0.00 | 0.00 | 0.00 | 51 | 1013.9 |
| 20260901182531 | 35 | 110 | 1.6 | 9.7 | 0.00 | 0.00 | 0.00 | 51 | 1014.0 |
| 20260901182032 | 35 | 86 | 8.0 | 12.9 | 0.00 | 0.00 | 0.00 | 50 | 1014.2 |
| 20260901181532 | 35 | 99 | 6.4 | 12.9 | 0.00 | 0.00 | 0.00 | 50 | 1014.2 |
| 20260901181032 | 35 | 159 | 6.4 | 8.0 | 0.00 | 0.00 | 0.00 | 50 | 1014.2 |
| 20260901180531 | 35 | 128 | 4.8 | 8.0 | 0.00 | 0.00 | 0.00 | 51 | 1014.4 |
| 20260901180031 | 35 | 121 | 8.0 | 8.0 | 0.00 | 0.00 | 0.00 | 51 | 1014.5 |
| 20260901175031 | 35 | 105 | 9.7 | 9.7 | 0.00 | 0.00 | 0.00 | 52 | 1014.6 |
| 20260901174531 | 35 | 267 | 0.0 | 8.0 | 0.00 | 0.00 | 0.00 | 52 | 1014.7 |
| 20260901174031 | 35 | 123 | 3.2 | 9.7 | 0.00 | 0.00 | 0.00 | 52 | 1014.9 |
| 20260901173531 | 35 | 75 | 1.6 | 12.9 | 0.00 | 0.00 | 0.00 | 53 | 1014.9 |
| 20260901173031 | 35 | 102 | 6.4 | 12.9 | 0.00 | 0.00 | 0.00 | 53 | 1015.0 |
| 20260901172031 | 34 | 71 | 3.2 | 9.7 | 0.00 | 0.00 | 0.00 | 54 | 1015.2 |
| 20260901171530 | 34 | 110 | 1.6 | 9.7 | 0.00 | 0.00 | 0.00 | 54 | 1015.2 |
| 20260901171030 | 34 | 94 | 6.4 | 9.7 | 0.00 | 0.00 | 0.00 | 55 | 1015.2 |
| 20260901170530 | 33 | 105 | 1.6 | 4.8 | 0.00 | 0.00 | 0.00 | 56 | 1015.3 |
| 20260901170030 | 33 | 129 | 3.2 | 3.2 | 0.00 | 0.00 | 0.00 | 56 | 1015.3 |
| 20260901165531 | 33 | 98 | 1.6 | 6.4 | 0.00 | 0.00 | 0.00 | 57 | 1015.4 |
| 20260901165030 | 33 | 106 | 3.2 | 6.4 | 0.00 | 0.00 | 0.00 | 57 | 1015.4 |
| 20260901164530 | 33 | 105 | 3.2 | 8.0 | 0.00 | 0.00 | 0.00 | 58 | 1015.4 |
| 20260901164030 | 33 | 168 | 3.2 | 8.0 | 0.00 | 0.00 | 0.00 | 58 | 1015.4 |
| 20260901163530 | 33 | 115 | 1.6 | 6.4 | 0.00 | 0.00 | 0.00 | 58 | 1015.4 |
| 20260901162530 | 32 | 77 | 3.2 | 4.8 | 0.00 | 0.00 | 0.00 | 59 | 1015.5 |
| 20260901162030 | 32 | 113 | 0.0 | 4.8 | 0.00 | 0.00 | 0.00 | 61 | 1015.5 |
| 20260901161030 | 32 | 176 | 3.2 | 6.4 | 0.00 | 0.00 | 0.00 | 63 | 1015.7 |
| 20260901160530 | 32 | 267 | 1.6 | 4.8 | 0.00 | 0.00 | 0.00 | 64 | 1015.6 |
| 20260901160030 | 32 | 99 | 1.6 | 4.8 | 0.00 | 0.00 | 0.00 | 64 | 1015.6 |
| 20260901155030 | 32 | 123 | 8.0 | 11.3 | 0.00 | 0.00 | 0.00 | 64 | 1015.7 |
| 20260901154530 | 31 | 46 | 0.0 | 3.2 | 0.00 | 0.00 | 0.00 | 66 | 1015.6 |
| 20260901153530 | 31 | 142 | 0.0 | 4.8 | 0.00 | 0.00 | 0.00 | 67 | 1015.7 |
| 20260901153030 | 31 | 107 | 1.6 | 4.8 | 0.00 | 0.00 | 0.00 | 68 | 1015.6 |
| 20260901152530 | 31 | 115 | 3.2 | 3.2 | 0.00 | 0.00 | 0.00 | 69 | 1015.5 |
| 20260901152029 | 30 | 5 | 0.0 | 4.8 | 0.00 | 0.00 | 0.00 | 69 | 1015.5 |
| 20260901151530 | 30 | 296 | 3.2 | 6.4 | 0.00 | 0.00 | 0.00 | 70 | 1015.5 |
| 20260901151029 | 30 | 245 | 3.2 | 6.4 | 0.00 | 0.00 | 0.00 | 71 | 1015.5 |
| 20260901150529 | 30 | 190 | 3.2 | 6.4 | 0.00 | 0.00 | 0.00 | 72 | 1015.6 |
| 20260901150030 | 30 | 339 | 6.4 | 6.4 | 0.00 | 0.00 | 0.00 | 72 | 1015.6 |
| 20260901145529 | 30 | 5 | 4.8 | 4.8 | 0.00 | 0.00 | 0.00 | 73 | 1015.7 |
| 20260901145030 | 30 | 227 | 3.2 | 4.8 | 0.00 | 0.00 | 0.00 | 73 | 1015.7 |
| 20260901144529 | 30 | 122 | 0.0 | 4.8 | 0.00 | 0.00 | 0.00 | 74 | 1015.6 |
| 20260901144029 | 30 | 126 | 0.0 | 4.8 | 0.00 | 0.00 | 0.00 | 74 | 1015.7 |
| 20260901143529 | 30 | 267 | 1.6 | 4.8 | 0.00 | 0.00 | 0.00 | 74 | 1015.8 |
| 20260901143029 | 29 | 335 | 0.0 | 0.0 | 0.00 | 0.00 | 0.00 | 75 | 1015.8 |
| 20260901142529 | 29 | 209 | 0.0 | 0.0 | 0.00 | 0.00 | 0.00 | 76 | 1015.8 |
| 20260901142029 | 29 | 160 | 0.0 | 0.0 | 0.00 | 0.00 | 0.00 | 76 | 1015.9 |
| 20260901141529 | 29 | 331 | 0.0 | 3.2 | 0.00 | 0.00 | 0.00 | 76 | 1015.9 |
| 20260901141029 | 28 | 302 | 0.0 | 3.2 | 0.00 | 0.00 | 0.00 | 77 | 1016.0 |
| 20260901140529 | 28 | 52 | 1.6 | 1.6 | 0.00 | 0.00 | 0.00 | 77 | 1016.0 |
| 20260901135529 | 28 | 188 | 0.0 | 4.8 | 0.00 | 0.00 | 0.00 | 78 | 1015.9 |
| 20260901135029 | 28 | 337 | 1.6 | 4.8 | 0.00 | 0.00 | 0.00 | 78 | 1015.9 |
| 20260901134529 | 28 | 282 | 0.0 | 4.8 | 0.00 | 0.00 | 0.00 | 78 | 1015.8 |
| 20260901134029 | 28 | 342 | 1.6 | 4.8 | 0.00 | 0.00 | 0.00 | 78 | 1015.7 |
| 20260901132529 | 27 | 321 | 0.0 | 3.2 | 0.00 | 0.00 | 0.00 | 79 | 1015.6 |
| 20260901132028 | 27 | 306 | 0.0 | 3.2 | 0.00 | 0.00 | 0.00 | 79 | 1015.6 |
| 20260901131528 | 27 | 336 | 0.0 | 0.0 | 0.00 | 0.00 | 0.00 | 80 | 1015.5 |
| 20260901131028 | 27 | 270 | 0.0 | 0.0 | 0.00 | 0.00 | 0.00 | 80 | 1015.5 |
| 20260901130528 | 27 | 270 | 0.0 | 0.0 | 0.00 | 0.00 | 0.00 | 80 | 1015.5 |
| 20260901130028 | 26 | 270 | 0.0 | 0.0 | 0.00 | 0.00 | 0.00 | 81 | 1015.6 |
| 20260901125528 | 26 | 270 | 0.0 | 0.0 | 0.00 | 0.00 | 0.00 | 81 | 1015.5 |
| 20260901125028 | 26 | 270 | 0.0 | 0.0 | 0.00 | 0.00 | 0.00 | 81 | 1015.4 |
| 20260901124528 | 26 | 270 | 0.0 | 0.0 | 0.00 | 0.00 | 0.00 | 81 | 1015.3 |
| 20260901124028 | 26 | 270 | 0.0 | 0.0 | 0.00 | 0.00 | 0.00 | 81 | 1015.3 |
| 20260901123528 | 26 | 270 | 0.0 | 0.0 | 0.00 | 0.00 | 0.00 | 81 | 1015.2 |
| 20260901123028 | 26 | 270 | 0.0 | 0.0 | 0.00 | 0.00 | 0.00 | 81 | 1015.2 |
| 20260901122528 | 26 | 276 | 0.0 | 0.0 | 0.00 | 0.00 | 0.00 | 81 | 1015.1 |
| 20260901122028 | 26 | 276 | 0.0 | 0.0 | 0.00 | 0.00 | 0.00 | 81 | 1015.1 |
| 20260901121527 | 26 | 285 | 0.0 | 0.0 | 0.00 | 0.00 | 0.00 | 81 | 1015.0 |
| 20260901121027 | 26 | 267 | 0.0 | 0.0 | 0.00 | 0.00 | 0.00 | 81 | 1015.0 |
| 20260901120027 | 26 | 136 | 0.0 | 0.0 | 0.00 | 0.00 | 0.00 | 80 | 1015.0 |
| 20260901115527 | 26 | 136 | 0.0 | 0.0 | 0.00 | 0.00 | 0.00 | 80 | 1015.0 |
| 20260901114527 | 26 | 136 | 0.0 | 0.0 | 0.00 | 0.00 | 0.00 | 80 | 1014.9 |
| 20260901113527 | 26 | 136 | 0.0 | 0.0 | 0.00 | 0.00 | 0.00 | 80 | 1014.9 |
| 20260901113028 | 26 | 136 | 0.0 | 1.6 | 0.00 | 0.00 | 0.00 | 80 | 1014.9 |
| 20260901112527 | 26 | 136 | 1.6 | 1.6 | 0.00 | 0.00 | 0.00 | 80 | 1014.9 |
| 20260901112027 | 26 | 136 | 0.0 | 0.0 | 0.00 | 0.00 | 0.00 | 80 | 1014.8 |
| 20260901111027 | 26 | 188 | 0.0 | 1.6 | 0.00 | 0.00 | 0.00 | 80 | 1014.8 |
| 20260901110527 | 26 | 188 | 0.0 | 1.6 | 0.00 | 0.00 | 0.00 | 80 | 1014.7 |
| 20260901110027 | 26 | 292 | 0.0 | 0.0 | 0.00 | 0.00 | 0.00 | 80 | 1014.8 |
| 20260901105527 | 26 | 292 | 0.0 | 3.2 | 0.00 | 0.00 | 0.00 | 80 | 1014.8 |
| 20260901105027 | 26 | 262 | 0.0 | 3.2 | 0.00 | 0.00 | 0.00 | 80 | 1014.8 |
| 20260901104527 | 26 | 287 | 1.6 | 1.6 | 0.00 | 0.00 | 0.00 | 80 | 1014.8 |
| 20260901103527 | 26 | 123 | 0.0 | 3.2 | 0.00 | 0.00 | 0.00 | 80 | 1014.7 |
| 20260901103027 | 26 | 254 | 1.6 | 3.2 | 0.00 | 0.00 | 0.00 | 80 | 1014.6 |
| 20260901102527 | 26 | 196 | 0.0 | 4.8 | 0.00 | 0.00 | 0.00 | 79 | 1014.5 |
| 20260901101027 | 26 | 266 | 0.0 | 1.6 | 0.00 | 0.00 | 0.00 | 79 | 1014.6 |
| 20260901100527 | 26 | 284 | 0.0 | 1.6 | 0.00 | 0.00 | 0.00 | 79 | 1014.7 |
| 20260901100027 | 26 | 89 | 0.0 | 1.6 | 0.00 | 0.00 | 0.00 | 79 | 1014.7 |
| 20260901095527 | 26 | 202 | 0.0 | 4.8 | 0.00 | 0.00 | 0.00 | 79 | 1014.7 |
| 20260901095026 | 26 | 198 | 0.0 | 4.8 | 0.00 | 0.00 | 0.00 | 79 | 1014.8 |
| 20260901094026 | 26 | 202 | 3.2 | 4.8 | 0.00 | 0.00 | 0.00 | 78 | 1014.9 |
| 20260901093526 | 26 | 178 | 0.0 | 0.0 | 0.00 | 0.00 | 0.00 | 78 | 1014.8 |
| 20260901093026 | 26 | 178 | 0.0 | 0.0 | 0.00 | 0.00 | 0.00 | 78 | 1015.0 |
| 20260901092026 | 27 | 206 | 0.0 | 1.6 | 0.00 | 0.00 | 0.00 | 77 | 1015.1 |
| 20260901091526 | 27 | 209 | 0.0 | 1.6 | 0.00 | 0.00 | 0.00 | 77 | 1015.2 |
| 20260901091026 | 27 | 208 | 0.0 | 1.6 | 0.00 | 0.00 | 0.00 | 77 | 1015.2 |
| 20260901090526 | 27 | 151 | 0.0 | 1.6 | 0.00 | 0.00 | 0.00 | 77 | 1015.1 |
| 20260901090026 | 27 | 136 | 0.0 | 1.6 | 0.00 | 0.00 | 0.00 | 76 | 1015.2 |
| 20260901085526 | 27 | 136 | 0.0 | 3.2 | 0.00 | 0.00 | 0.00 | 77 | 1015.1 |
| 20260901085026 | 27 | 137 | 0.0 | 4.8 | 0.00 | 0.00 | 0.00 | 77 | 1015.0 |
| 20260901084526 | 27 | 196 | 0.0 | 4.8 | 0.00 | 0.00 | 0.00 | 76 | 1015.0 |
| 20260901084026 | 27 | 134 | 1.6 | 4.8 | 0.00 | 0.00 | 0.00 | 76 | 1014.9 |
| 20260901083526 | 27 | 203 | 0.0 | 4.8 | 0.00 | 0.00 | 0.00 | 76 | 1014.9 |
| 20260901083026 | 27 | 221 | 0.0 | 0.0 | 0.00 | 0.00 | 0.00 | 75 | 1014.8 |
| 20260901082526 | 27 | 134 | 0.0 | 0.0 | 0.00 | 0.00 | 0.00 | 75 | 1014.9 |
| 20260901082025 | 27 | 197 | 0.0 | 0.0 | 0.00 | 0.00 | 0.00 | 75 | 1014.8 |
| 20260901081526 | 27 | 164 | 0.0 | 3.2 | 0.00 | 0.00 | 0.00 | 75 | 1014.8 |
| 20260901081026 | 27 | 192 | 0.0 | 3.2 | 0.00 | 0.00 | 0.00 | 74 | 1014.9 |
| 20260901080025 | 27 | 223 | 0.0 | 4.8 | 0.00 | 0.00 | 0.00 | 74 | 1015.0 |
| 20260901075525 | 27 | 150 | 4.8 | 4.8 | 0.00 | 0.00 | 0.00 | 74 | 1015.0 |
| 20260901075025 | 27 | 207 | 0.0 | 1.6 | 0.00 | 0.00 | 0.00 | 73 | 1014.9 |
| 20260901074525 | 27 | 123 | 0.0 | 3.2 | 0.00 | 0.00 | 0.00 | 73 | 1014.9 |
| 20260901074025 | 27 | 128 | 1.6 | 3.2 | 0.00 | 0.00 | 0.00 | 73 | 1014.9 |
| 20260901073525 | 27 | 180 | 0.0 | 1.6 | 0.00 | 0.00 | 0.00 | 72 | 1015.0 |
| 20260901073025 | 27 | 123 | 0.0 | 0.0 | 0.00 | 0.00 | 0.00 | 72 | 1014.9 |
| 20260901072525 | 27 | 194 | 0.0 | 4.8 | 0.00 | 0.00 | 0.00 | 72 | 1015.0 |
| 20260901072025 | 28 | 133 | 4.8 | 4.8 | 0.00 | 0.00 | 0.00 | 71 | 1015.0 |
| 20260901071525 | 28 | 161 | 0.0 | 0.0 | 0.00 | 0.00 | 0.00 | 71 | 1015.0 |
| 20260901071025 | 28 | 136 | 0.0 | 0.0 | 0.00 | 0.00 | 0.00 | 70 | 1014.9 |
| 20260901070525 | 28 | 136 | 0.0 | 4.8 | 0.00 | 0.00 | 0.00 | 70 | 1014.9 |
| 20260901070025 | 28 | 136 | 0.0 | 4.8 | 0.00 | 0.00 | 0.00 | 70 | 1015.0 |
| 20260901065525 | 28 | 136 | 0.0 | 4.8 | 0.00 | 0.00 | 0.00 | 70 | 1014.9 |
| 20260901065025 | 28 | 180 | 0.0 | 3.2 | 0.00 | 0.00 | 0.00 | 70 | 1014.9 |
| 20260901064525 | 28 | 194 | 0.0 | 4.8 | 0.00 | 0.00 | 0.00 | 70 | 1014.7 |
| 20260901064024 | 28 | 218 | 3.2 | 4.8 | 0.00 | 0.00 | 0.00 | 69 | 1014.7 |
| 20260901063524 | 28 | 254 | 0.0 | 3.2 | 0.00 | 0.00 | 0.00 | 69 | 1014.8 |
| 20260901063025 | 28 | 204 | 0.0 | 4.8 | 0.00 | 0.00 | 0.00 | 68 | 1014.7 |
| 20260901062524 | 28 | 101 | 4.8 | 4.8 | 0.00 | 0.00 | 0.00 | 68 | 1014.6 |
| 20260901062024 | 28 | 148 | 1.6 | 4.8 | 0.00 | 0.00 | 0.00 | 68 | 1014.6 |
| 20260901061524 | 28 | 153 | 1.6 | 9.7 | 0.00 | 0.00 | 0.00 | 67 | 1014.5 |
| 20260901061024 | 28 | 205 | 3.2 | 9.7 | 0.00 | 0.00 | 0.00 | 67 | 1014.6 |
| 20260901060524 | 29 | 236 | 0.0 | 6.4 | 0.00 | 0.00 | 0.00 | 67 | 1014.6 |
| 20260901055524 | 29 | 120 | 0.0 | 8.0 | 0.00 | 0.00 | 0.00 | 66 | 1014.6 |
| 20260901054524 | 29 | 161 | 1.6 | 9.7 | 0.00 | 0.00 | 0.00 | 66 | 1014.5 |
| 20260901054024 | 29 | 132 | 1.6 | 3.2 | 0.00 | 0.00 | 0.00 | 65 | 1014.5 |
| 20260901053524 | 30 | 198 | 0.0 | 4.8 | 0.00 | 0.00 | 0.00 | 65 | 1014.5 |
| 20260901053024 | 30 | 128 | 1.6 | 4.8 | 0.00 | 0.00 | 0.00 | 64 | 1014.4 |
| 20260901052524 | 30 | 207 | 3.2 | 4.8 | 0.00 | 0.00 | 0.00 | 64 | 1014.4 |
| 20260901052024 | 30 | 196 | 1.6 | 6.4 | 0.00 | 0.00 | 0.00 | 64 | 1014.3 |
| 20260901051524 | 30 | 198 | 6.4 | 9.7 | 0.00 | 0.00 | 0.00 | 63 | 1014.3 |
| 20260901051024 | 30 | 146 | 3.2 | 9.7 | 0.00 | 0.00 | 0.00 | 63 | 1014.2 |
| 20260901050523 | 30 | 242 | 1.6 | 4.8 | 0.00 | 0.00 | 0.00 | 62 | 1014.2 |
| 20260901045024 | 30 | 219 | 1.6 | 8.0 | 0.00 | 0.00 | 0.00 | 60 | 1014.2 |
| 20260901044524 | 30 | 111 | 6.4 | 8.0 | 0.00 | 0.00 | 0.00 | 60 | 1014.1 |
| 20260901044024 | 30 | 136 | 3.2 | 8.0 | 0.00 | 0.00 | 0.00 | 60 | 1014.1 |
| 20260901043524 | 31 | 287 | 1.6 | 6.4 | 0.00 | 0.00 | 0.00 | 59 | 1014.0 |
| 20260901043023 | 31 | 113 | 3.2 | 9.7 | 0.00 | 0.00 | 0.00 | 59 | 1014.1 |
| 20260901042524 | 31 | 150 | 3.2 | 9.7 | 0.00 | 0.00 | 0.00 | 58 | 1014.0 |
| 20260901042024 | 31 | 248 | 0.0 | 4.8 | 0.00 | 0.00 | 0.00 | 58 | 1014.0 |
| 20260901041524 | 31 | 179 | 1.6 | 4.8 | 0.00 | 0.00 | 0.00 | 57 | 1014.0 |
| 20260901041023 | 31 | 133 | 4.8 | 4.8 | 0.00 | 0.00 | 0.00 | 57 | 1014.0 |
| 20260901040023 | 31 | 209 | 3.2 | 11.3 | 0.00 | 0.00 | 0.00 | 56 | 1014.0 |
| 20260901035523 | 31 | 125 | 11.3 | 11.3 | 0.00 | 0.00 | 0.00 | 56 | 1013.8 |
| 20260901035023 | 31 | 162 | 8.0 | 11.3 | 0.00 | 0.00 | 0.00 | 55 | 1013.8 |
| 20260901034523 | 32 | 157 | 4.8 | 11.3 | 0.00 | 0.00 | 0.00 | 55 | 1013.9 |
| 20260901033523 | 32 | 151 | 3.2 | 14.5 | 0.00 | 0.00 | 0.00 | 53 | 1013.8 |
| 20260901033022 | 32 | 149 | 6.4 | 14.5 | 0.00 | 0.00 | 0.00 | 53 | 1013.8 |
| 20260901032522 | 32 | 122 | 1.6 | 8.0 | 0.00 | 0.00 | 0.00 | 52 | 1013.7 |
| 20260901032022 | 32 | 135 | 4.8 | 11.3 | 0.00 | 0.00 | 0.00 | 51 | 1013.7 |
| 20260901031522 | 32 | 175 | 3.2 | 11.3 | 0.00 | 0.00 | 0.00 | 51 | 1013.6 |
| 20260901030522 | 32 | 129 | 3.2 | 4.8 | 0.00 | 0.00 | 0.00 | 49 | 1013.5 |
| 20260901030022 | 32 | 116 | 4.8 | 14.5 | 0.00 | 0.00 | 0.00 | 48 | 1013.4 |
| 20260901025522 | 32 | 130 | 11.3 | 14.5 | 0.00 | 0.00 | 0.00 | 47 | 1013.4 |
| 20260901025022 | 32 | 210 | 1.6 | 14.5 | 0.00 | 0.00 | 0.00 | 46 | 1013.3 |
| 20260901024522 | 32 | 90 | 4.8 | 14.5 | 0.00 | 0.00 | 0.00 | 45 | 1013.2 |
| 20260901024021 | 33 | 101 | 4.8 | 14.5 | 0.00 | 0.00 | 0.00 | 44 | 1013.1 |
| 20260901023522 | 33 | 141 | 4.8 | 14.5 | 0.00 | 0.00 | 0.00 | 43 | 1013.0 |
| 20260901023021 | 33 | 100 | 1.6 | 14.5 | 0.00 | 0.00 | 0.00 | 43 | 1012.9 |
| 20260901022522 | 33 | 126 | 1.6 | 19.3 | 0.00 | 0.00 | 0.00 | 42 | 1012.8 |
| 20260901022021 | 33 | 158 | 3.2 | 19.3 | 0.00 | 0.00 | 0.00 | 41 | 1012.6 |
| 20260901021521 | 33 | 184 | 6.4 | 9.7 | 0.00 | 0.00 | 0.00 | 40 | 1012.7 |
| 20260901021021 | 33 | 180 | 1.6 | 9.7 | 0.00 | 0.00 | 0.00 | 40 | 1012.4 |
| 20260901020521 | 33 | 136 | 4.8 | 9.7 | 0.00 | 0.00 | 0.00 | 40 | 1012.3 |
| 20260901015521 | 33 | 126 | 3.2 | 4.8 | 0.00 | 0.00 | 0.00 | 39 | 1012.2 |